sat.trackr.live / text

‹ back to catalog

HULIANWANG DIGUI-160

NORAD 68134 · 2026-047F

PAYLOAD ACTIVE UNKNOWN

§ Identity

Operator
Country
PRC
Launch date
2026-03-12
Launch site
WSC
Launch vehicle
Mass (kg)
RCS (m²)

External: N2YO · Heavens-Above · Gunter

§ Orbital elements

Epoch: 2026-05-25T00:34:27.488064Z

Period
108.33 min
Inclination
50.0052°
Eccentricity
0.0000528
Mean motion
13.29331900 rev/d
Perigee alt
1,148.9 km
Apogee alt
1,149.7 km
Semi-major
7,527.4 km
B*
7.6709e-5
RAAN
139.0551°
Arg perigee
348.6766°
Mean anomaly
11.4094°
Rev number
998

§ Raw data

HULIANWANG DIGUI-1601 68134U 26047F   26145.02392926 -.00000088  00000+0  76709-4 0  99912 68134  50.0052 139.0551 0000528 348.6766  11.4094 13.29331900  9981

JSON: /api/v1/satellites/68134 · /tle

For live sub-satellite position, see the globe view (requires WebGL).

§ Visibility from observer

Set your observer location to see the next 7 days of passes ≥ 10°. The values pass through the URL so the page stays shareable.

No JS? Fill the form by hand. The geolocation button needs JavaScript.